Location: Altmatt
(47.1333°N, 8.7000°E)
Time: 18:00:21
(UTC+00:00)

Meteor 1-11 - Pass Details

Date: 13 July 2020
Orbit: 841 x 886 km, 81.2° (Epoch: 12 August)

Event Time Altitude Azimuth Distance (km) Brightness Sun altitude
Rises 19:58:58 0° 189° (S) 3,411 7.0 -6.3°
Reaches altitude 10° 20:01:22 10° 190° (S) 2,486 6.3 -6.6°
Maximum altitude 20:07:01 88° 277° (W) 873 4.3 -7.3°
Drops below altitude 10° 20:12:48 10° 11° (N) 2,534 7.2 -8.0°
Sets 20:15:16 0° 12° (NNE) 3,483 7.9 -8.3°
